Wind_Speed
6 5 4 4 3 3 3 2 2 2 2 2 2 2 2 2 2 2 3 3 4 4 4 3 4 4 4 5 6 6 6 6 7 7 7 7 7 7 7 7 7 7 7
7 5 4 3 3 2 2 2 2 2 2 2 2 2 2 3 2 2 2 3 3 3 4 3 3 3 3 4 5 6 6 7 7 7 7 7 8 8 8 8 9 8 8
8 6 5 4 3 3 2 3 2 2 2 2 3 3 3 3 2 2 2 2 2 3 3 3 3 3 3 3 3 5 6 6 7 7 7 8 9 9 9 9 9 10 10
9 7 6 5 4 3 3 3 3 3 3 3 3 3 3 3 2 2 2 2 3 3 3 3 3 3 3 3 3 4 5 6 6 7 7 7 7 8 9 9 9 10 10
9 8 6 6 5 4 4 4 3 3 3 3 2 3 3 3 3 3 3 3 3 2 2 3 3 3 3 3 3 4 5 5 6 6 6 7 7 8 8 9 9 10 10
10 8 7 6 6 6 5 5 4 4 4 3 3 3 3 3 3 3 3 3 3 3 3 3 3 4 4 4 4 5 5 5 5 5 6 7 7 8 8 9 9 10 10
11 9 8 7 7 7 7 6 6 6 5 5 5 5 5 4 4 3 4 4 3 3 3 3 3 4 4 4 4 4 5 5 5 6 6 7 7 8 9 10 11 11 11
12 11 9 9 8 8 8 7 7 7 7 7 7 6 6 6 6 5 5 5 5 4 4 4 4 4 4 4 4 4 5 5 6 7 7 8 9 9 10 11 12 12 13
13 11 10 10 9 9 9 9 9 9 9 9 8 8 7 7 7 6 6 6 5 6 6 6 6 5 6 6 6 6 6 7 7 8 9 10 10 11 12 13 13 14 14
12 12 11 11 10 11 10 10 10 10 10 10 10 9 9 9 8 8 8 8 8 8 8 7 7 7 7 7 8 9 9 9 10 11 11 12 13 14 14 15 15 16 17
12 13 12 12 12 12 12 11 11 11 11 11 11 11 11 10 10 9 9 9 9 10 9 9 8 9 10 10 10 11 11 12 13 14 14 15 16 17 17 18 19 19 20
13 13 13 13 13 13 13 12 11 12 12 12 12 12 12 12 11 11 11 11 11 11 11 11 12 12 12 13 14 14 15 16 17 17 18 18 19 20 20 21 21 22 23
12 12 13 13 13 14 14 13 13 13 13 13 13 13 13 13 14 14 13 13 13 13 13 13 14 14 15 16 17 17 18 19 20 20 21 21 22 23 24 24 25 25 26
12 12 13 14 14 14 14 14 14 14 15 15 14 14 15 15 15 15 15 16 16 15 15 15 16 17 18 19 19 20 21 22 22 23 23 24 24 25 26 27 28 29 30
12 13 13 13 13 14 15 15 16 16 16 16 16 16 16 16 16 16 16 17 17 18 18 18 18 19 20 21 21 22 23 23 24 24 25 26 26 27 28 29 30 31 32
12 13 14 15 14 14 15 16 16 17 17 17 18 18 17 17 17 18 18 18 19 20 20 20 20 21 22 23 23 24 24 25 26 27 27 28 29 30 30 32 32 33 34
13 13 14 16 16 17 16 16 16 16 17 19 19 19 19 19 19 20 20 20 20 21 21 21 22 23 23 24 25 26 27 27 28 29 29 30 31 32 33 34 35 36 37
13 14 15 15 16 17 17 17 17 17 18 19 19 19 20 20 20 21 22 22 22 23 23 23 24 25 25 26 27 28 29 30 30 31 32 33 33 34 35 37 38 39 40
12 13 14 14 15 16 17 17 18 19 19 20 21 21 21 21 22 23 23 23 23 24 25 25 26 27 27 28 29 29 30 31 33 33 34 35 35 36 38 38 39 41 42
12 13 14 15 16 16 18 18 19 18 19 20 22 22 23 23 23 25 25 24 25 26 27 27 28 29 30 30 30 31 32 33 33 34 36 37 37 39 40 41 42 43 44
14 15 16 16 16 17 18 19 20 20 21 22 23 23 24 24 24 25 25 26 26 27 28 29 29 30 30 31 31 32 33 34 35 36 38 38 39 41 42 44 45 46 47
15 15 16 17 17 18 19 20 20 20 21 21 21 22 23 24 24 24 25 26 27 27 28 28 29 30 31 32 32 33 33 35 36 38 40 41 42 43 45 47 48 49 50
16 17 17 17 18 19 19 19 20 21 21 21 21 22 23 24 25 26 26 26 26 27 27 28 29 30 31 32 33 34 35 37 39 40 41 42 44 45 47 48 49 50 52
18 19 19 19 19 20 20 21 22 22 23 23 23 23 23 24 25 25 26 27 27 27 28 29 29 30 31 33 34 36 37 38 39 41 43 44 45 47 48 49 50 51 52
18 19 19 20 21 21 22 22 23 23 23 23 24 24 23 24 25 25 26 26 27 27 28 29 30 31 32 34 35 36 38 40 42 43 44 45 45 47 48 49 50 50 50
19 19 20 21 21 21 21 22 23 23 23 23 24 24 24 24 25 25 25 27 27 28 28 30 32 33 34 36 37 37 39 41 42 44 45 45 46 47 47 48 48 48 48
Wind_Direction
233 243 253 252 253 254 254 241 244 238 207 199 204 213 216 198 186 198 199 201 202 202 207 210 219 226 237 243 242 239 244 245 243 247 253 259 263 265 266 271 273 274 278
231 237 236 247 262 251 244 235 232 218 210 209 208 209 213 195 175 181 185 193 192 196 206 208 213 218 238 250 249 240 242 245 245 247 254 259 263 263 267 270 273 273 275
224 229 230 243 248 236 229 212 206 203 192 196 201 201 203 190 177 185 185 186 182 189 203 211 214 222 238 249 251 241 242 249 252 252 260 263 262 263 266 271 275 270 274
219 218 219 224 230 227 219 209 198 201 197 197 199 199 203 195 196 195 191 181 187 199 203 210 220 230 236 246 247 243 241 249 255 253 258 263 263 263 266 269 274 272 275
209 211 212 218 223 221 218 211 202 205 206 199 192 191 191 194 198 197 202 199 199 206 216 224 236 237 238 238 243 240 241 245 252 254 255 259 263 266 269 270 273 275 278
205 207 209 211 216 218 219 217 212 212 213 213 208 204 199 198 198 201 213 218 216 224 230 231 241 239 244 246 244 243 241 242 252 259 263 261 264 268 271 272 274 276 278
207 209 209 212 215 218 220 222 221 224 224 221 222 222 217 208 206 214 221 222 227 237 241 244 241 243 245 240 235 238 245 251 257 262 268 269 271 274 274 273 273 275 276
208 210 212 216 220 220 221 225 230 231 228 228 231 228 227 224 219 223 229 229 230 235 244 252 255 255 248 243 236 240 251 259 264 268 274 273 275 275 277 278 276 276 276
208 212 217 220 222 222 226 229 231 231 232 232 236 235 234 234 235 236 237 236 236 240 248 259 260 264 258 259 260 259 260 264 269 274 277 277 279 281 281 279 277 278 279
213 218 221 223 228 232 233 234 235 234 235 235 236 238 238 240 242 243 243 243 244 247 255 262 264 266 269 268 274 271 269 270 273 277 278 279 282 283 281 280 279 280 280
221 224 227 228 231 235 236 239 240 239 240 240 239 239 239 241 244 246 247 249 253 256 257 260 268 268 271 272 275 275 275 277 276 278 279 279 280 281 281 280 280 280 280
226 229 230 230 233 236 237 240 242 241 242 242 242 240 241 243 246 249 251 253 259 262 262 267 272 270 272 274 276 278 279 279 279 280 280 281 280 281 281 280 280 281 281
225 229 233 235 238 239 240 243 247 244 245 246 244 245 246 249 251 254 255 256 259 263 265 267 270 272 273 275 277 280 282 282 281 283 282 281 281 282 281 280 280 280 281
229 234 237 237 239 242 242 245 249 250 250 250 249 251 251 253 254 255 258 260 260 261 264 267 268 271 275 276 277 279 282 284 283 285 282 281 281 282 283 282 281 281 281
235 237 242 242 243 246 246 247 250 251 252 252 252 253 253 256 257 258 260 262 264 264 266 268 271 274 276 277 277 279 281 282 284 284 282 282 282 283 283 283 283 282 282
245 246 246 245 247 251 252 251 252 254 255 255 255 255 255 256 257 259 261 264 265 266 267 270 274 276 278 279 278 279 280 281 283 283 283 283 283 283 284 285 284 283 283
249 251 251 250 251 252 252 253 255 256 256 255 255 257 258 258 259 262 263 266 267 269 270 273 276 278 279 278 278 279 281 281 282 282 283 284 285 285 284 285 285 284 283
253 253 254 255 254 255 252 255 256 257 256 257 257 259 260 259 260 264 265 266 269 272 275 275 277 280 281 281 280 282 282 283 283 284 285 286 286 285 285 285 285 285 284
260 256 253 255 255 254 254 256 259 259 258 258 258 259 260 262 264 267 268 268 269 273 276 276 280 281 283 283 282 282 283 284 284 286 286 286 285 285 287 287 287 287 287
263 260 258 259 257 255 254 257 260 261 263 262 260 260 262 265 267 268 270 271 272 275 277 279 281 280 282 284 284 284 284 285 286 287 288 287 286 287 287 288 288 288 288
265 267 265 263 259 258 260 260 260 262 263 265 265 264 264 265 268 270 271 273 275 276 277 279 281 281 282 284 285 286 286 286 287 289 289 288 288 288 289 289 289 289 289
268 270 269 266 263 263 261 260 261 262 264 266 266 265 266 268 269 271 274 275 276 278 278 279 281 281 282 284 286 287 287 287 289 290 290 291 291 291 291 291 290 290 290
272 270 269 267 266 263 261 263 265 265 265 266 267 268 268 269 272 273 274 276 279 280 280 281 282 282 283 283 285 287 288 290 290 291 291 291 291 291 291 291 291 292 292
275 273 271 269 268 266 266 266 266 266 266 267 267 270 270 271 274 275 276 279 280 281 283 283 283 284 284 285 286 288 289 289 290 291 292 292 292 292 292 292 293 293 293
280 276 274 272 269 268 268 268 269 269 269 271 271 272 272 271 273 276 278 279 280 282 283 284 285 286 287 287 289 290 290 291 292 293 293 294 294 293 294 294 294 295 295
279 279 279 276 273 270 269 269 271 270 270 271 272 273 274 275 278 279 281 282 284 284 285 287 288 288 289 289 289 290 291 292 293 294 295 295 295 295 296 297 297 298 298
Height
5904 5905 5905 5905 5906 5906 5906 5906 5906 5907 5907 5907 5907 5907 5907 5907 5908 5908 5908 5908 5908 5909 5909 5909 5909 5910 5910 5910 5910 5910 5910 5911 5911 5911 5911 5911 5911 5911 5910 5910 5909 5909 5909
5903 5904 5904 5905 5905 5905 5905 5906 5906 5906 5906 5907 5907 5907 5907 5907 5908 5908 5908 5908 5908 5908 5909 5909 5909 5909 5909 5909 5909 5909 5909 5909 5910 5910 5910 5910 5910 5909 5909 5909 5908 5908 5907
5902 5903 5904 5904 5904 5905 5905 5905 5906 5906 5906 5906 5907 5907 5907 5907 5907 5908 5908 5908 5908 5908 5908 5908 5908 5908 5908 5908 5908 5908 5908 5908 5909 5909 5908 5908 5908 5908 5908 5907 5907 5906 5906
5900 5901 5903 5903 5904 5904 5904 5905 5905 5906 5906 5906 5906 5907 5907 5907 5907 5907 5908 5908 5908 5908 5908 5908 5908 5908 5908 5907 5907 5907 5907 5907 5907 5907 5907 5907 5907 5906 5906 5906 5905 5905 5904
5898 5900 5901 5902 5903 5903 5904 5904 5905 5905 5906 5906 5906 5906 5906 5907 5907 5907 5907 5907 5907 5907 5907 5907 5907 5907 5907 5907 5907 5906 5906 5906 5906 5906 5906 5905 5905 5905 5905 5904 5903 5903 5902
5897 5898 5899 5900 5901 5902 5903 5904 5904 5905 5905 5906 5906 5906 5906 5906 5906 5907 5907 5907 5907 5907 5907 5907 5906 5906 5906 5906 5906 5906 5905 5905 5905 5905 5904 5904 5904 5903 5903 5902 5902 5901 5901
5895 5896 5897 5899 5900 5901 5902 5903 5903 5904 5904 5905 5905 5906 5906 5906 5906 5906 5906 5906 5906 5906 5906 5906 5906 5905 5905 5905 5905 5904 5904 5904 5904 5903 5903 5902 5902 5902 5901 5900 5900 5899 5898
5893 5895 5896 5897 5899 5899 5900 5901 5902 5902 5903 5904 5904 5905 5905 5906 5905 5906 5905 5905 5905 5905 5905 5905 5905 5904 5904 5904 5904 5903 5903 5903 5902 5901 5901 5900 5900 5899 5899 5898 5897 5896 5896
5890 5892 5894 5895 5897 5898 5899 5899 5900 5901 5901 5902 5903 5903 5904 5904 5904 5905 5904 5904 5904 5904 5904 5904 5904 5903 5903 5903 5902 5902 5901 5901 5900 5900 5899 5899 5898 5897 5896 5895 5895 5894 5893
5888 5890 5891 5893 5894 5895 5896 5897 5898 5898 5899 5900 5901 5901 5902 5902 5903 5903 5903 5903 5903 5903 5903 5903 5902 5902 5901 5901 5901 5900 5900 5899 5898 5897 5897 5896 5895 5894 5893 5892 5891 5890 5889
5886 5887 5889 5890 5892 5893 5894 5894 5895 5896 5896 5897 5898 5899 5899 5900 5900 5901 5901 5901 5901 5901 5901 5901 5901 5900 5900 5899 5899 5898 5897 5896 5896 5895 5894 5893 5892 5891 5890 5888 5887 5886 5885
5883 5885 5886 5888 5889 5890 5891 5892 5893 5893 5894 5894 5895 5896 5897 5898 5898 5898 5899 5899 5899 5899 5899 5899 5898 5898 5897 5896 5896 5895 5894 5893 5892 5891 5890 5888 5887 5886 5885 5884 5882 5881 5880
5881 5882 5884 5885 5886 5887 5888 5889 5889 5890 5891 5892 5892 5893 5894 5894 5895 5895 5896 5896 5896 5896 5896 5896 5895 5894 5894 5893 5892 5891 5890 5889 5888 5886 5885 5884 5882 5881 5880 5878 5877 5875 5874
5878 5879 5880 5881 5883 5883 5884 5885 5886 5887 5888 5888 5889 5890 5890 5891 5891 5892 5892 5892 5892 5892 5892 5892 5891 5891 5890 5888 5888 5886 5885 5884 5882 5881 5879 5878 5876 5875 5873 5872 5870 5869 5867
5875 5876 5877 5878 5879 5880 5881 5882 5883 5883 5884 5885 5885 5886 5886 5887 5887 5887 5888 5888 5888 5888 5888 5887 5886 5886 5884 5883 5882 5881 5879 5878 5876 5875 5873 5872 5870 5868 5866 5865 5863 5861 5859
5872 5873 5874 5875 5876 5877 5877 5878 5879 5879 5880 5880 5881 5882 5882 5883 5883 5883 5883 5883 5883 5883 5882 5882 5881 5880 5879 5877 5876 5874 5873 5871 5870 5868 5866 5864 5863 5861 5859 5857 5854 5852 5850
5869 5870 5870 5871 5872 5872 5873 5873 5874 5874 5875 5876 5876 5877 5877 5878 5878 5878 5878 5878 5878 5877 5876 5876 5874 5873 5872 5871 5869 5868 5866 5864 5863 5861 5859 5857 5855 5852 5850 5848 5845 5843 5840
5866 5866 5866 5867 5867 5867 5868 5869 5869 5870 5870 5871 5871 5871 5871 5872 5872 5872 5872 5872 5872 5871 5870 5869 5868 5866 5865 5864 5862 5860 5858 5857 5855 5852 5850 5848 5846 5843 5841 5838 5835 5832 5829
5862 5862 5862 5862 5863 5863 5863 5864 5864 5865 5865 5865 5866 5866 5866 5866 5866 5866 5866 5866 5865 5864 5863 5862 5861 5859 5858 5857 5855 5853 5851 5849 5846 5844 5842 5839 5836 5833 5830 5827 5824 5821 5818
5858 5858 5858 5858 5858 5858 5859 5859 5859 5859 5859 5859 5860 5860 5860 5860 5860 5860 5859 5859 5858 5857 5856 5855 5854 5852 5850 5849 5847 5845 5843 5840 5838 5835 5832 5830 5827 5823 5820 5817 5813 5810 5806
5854 5854 5853 5853 5853 5853 5854 5854 5854 5854 5854 5854 5854 5854 5854 5854 5853 5853 5852 5852 5851 5850 5849 5847 5845 5844 5842 5840 5839 5836 5834 5831 5829 5826 5823 5820 5816 5813 5809 5805 5801 5797 5793
5850 5849 5849 5848 5848 5848 5848 5848 5848 5848 5848 5848 5847 5847 5847 5847 5846 5846 5845 5844 5843 5842 5841 5839 5837 5836 5834 5832 5830 5827 5825 5822 5819 5816 5812 5809 5805 5801 5797 5793 5789 5784 5779
5845 5844 5844 5843 5843 5843 5842 5842 5843 5842 5842 5841 5841 5841 5840 5840 5839 5839 5838 5837 5835 5834 5833 5831 5829 5827 5825 5823 5821 5818 5816 5812 5809 5805 5802 5798 5793 5789 5785 5780 5776 5771 5766
5840 5839 5839 5838 5838 5837 5837 5837 5836 5836 5835 5835 5834 5834 5834 5833 5832 5832 5830 5829 5828 5827 5825 5823 5821 5819 5816 5814 5811 5809 5806 5802 5799 5795 5790 5786 5781 5777 5772 5767 5762 5757 5752
5834 5834 5833 5832 5832 5831 5831 5830 5830 5829 5829 5828 5827 5827 5826 5826 5825 5824 5823 5822 5821 5819 5817 5815 5812 5810 5807 5805 5802 5798 5795 5791 5788 5784 5779 5775 5769 5764 5759 5754 5749 5743 5738
5829 5828 5827 5826 5825 5825 5824 5824 5823 5822 5822 5821 5821 5820 5820 5819 5818 5817 5816 5814 5813 5811 5809 5807 5804 5801 5798 5795 5792 5788 5785 5781 5777 5772 5767 5763 5757 5752 5747 5741 5736 5731 5725